Weather History for Buckeye, AZ

Change the Weather History Date:

Monday, September 10, 2012

  Actual Average (KGYR) Record (KGYR)
Temperature  
Mean Temperature 83 °F -  
Max Temperature 95 °F 98 °F 105 °F (1997)
Min Temperature 71 °F 74 °F 69 °F (2001)
Cooling Degree Days 18    
Growing Degree Days 33 (Base 50)    
Moisture  
Dew Point 65 °F    
Average Humidity 59    
Maximum Humidity 100    
Minimum Humidity 28    
Precipitation  
Precipitation 0.11 in - - ()
Sea Level Pressure  
Sea Level Pressure 29.93 in    
Wind  
Wind Speed 6 mph (ESE)    
Max Wind Speed 30 mph    
Max Gust Speed 45 mph    
Visibility 10 miles    
Events      
Averages and records for this station are not official NWS values.
T = Trace of Precipitation, MM = Missing Value Source: NWS Daily Summary

Daily Weather History Graph

Daily Weather History Graph

Search for Another Location

Airport:

Trip Planner

Search our weather history database for the weather conditions in past years. The results will help you decide how hot, cold, wet, or windy it might be!

Date:

Astronomy

Sep. 10, 2012 Rise Set
Actual Time 6:11 AM MST 6:43 PM MST
Civil Twilight 5:46 AM MST 7:08 PM MST
Nautical Twilight 5:16 AM MST 7:37 PM MST
Astronomical Twilight 4:46 AM MST 8:07 PM MST
Moon 12:48 AM MST (9/10) 3:04 PM MST (9/10)
Length of Visible Light 13h 21m
Length of Day
12h 31m
Waning Crescent, 29% of the Moon is Illuminated
Sep 10
Waning Crescent
Sep 15
New
Sep 22
First Quarter
Sep 29
Full
Oct 8
Last Quarter

Hourly Weather History & Observations

Time (MST) Temp. Heat Index Dew Point Humidity Pressure Visibility Wind Dir Wind Speed Gust Speed Precip Events Conditions
12:15 AM 73.4 °F - 68.0 °F 83% 29.95 in 10.0 mi SSE 3.5 mph - N/A   Overcast
12:35 AM 73.4 °F - 68.0 °F 83% 29.95 in 10.0 mi South 3.5 mph - N/A   Overcast
12:55 AM 75.2 °F - 66.2 °F 73% 29.95 in 10.0 mi Calm Calm - N/A   Scattered Clouds
1:15 AM 73.4 °F - 66.2 °F 78% 29.95 in 10.0 mi Calm Calm - N/A   Scattered Clouds
1:35 AM 75.2 °F - 66.2 °F 73% 29.95 in 10.0 mi East 9.2 mph - N/A   Mostly Cloudy
1:55 AM 75.2 °F - 68.0 °F 78% 29.96 in 10.0 mi East 9.2 mph - N/A   Overcast
2:15 AM 75.2 °F - 66.2 °F 73% 29.96 in 10.0 mi East 5.8 mph - N/A   Overcast
2:35 AM 75.2 °F - 66.2 °F 73% 29.96 in 10.0 mi East 4.6 mph - N/A   Mostly Cloudy
2:55 AM 75.2 °F - 66.2 °F 73% 29.96 in 10.0 mi ENE 4.6 mph - N/A   Scattered Clouds
3:15 AM 75.2 °F - 68.0 °F 78% 29.96 in 10.0 mi NE 4.6 mph - N/A   Scattered Clouds
3:35 AM 75.2 °F - 66.2 °F 73% 29.96 in 10.0 mi NE 3.5 mph - N/A   Mostly Cloudy
3:55 AM 75.2 °F - 66.2 °F 73% 29.96 in 10.0 mi NNE 5.8 mph - N/A   Mostly Cloudy
4:15 AM 75.2 °F - 66.2 °F 73% 29.96 in 10.0 mi NNE 9.2 mph - N/A   Overcast
4:35 AM 75.2 °F - 66.2 °F 73% 29.96 in 10.0 mi ENE 4.6 mph - N/A   Overcast
4:55 AM 73.4 °F - 66.2 °F 78% 29.96 in 10.0 mi NW 3.5 mph - N/A   Overcast
5:15 AM 73.4 °F - 68.0 °F 83% 29.95 in 10.0 mi North 8.1 mph - N/A   Overcast
5:35 AM 73.4 °F - 68.0 °F 83% 29.95 in 10.0 mi North 8.1 mph - N/A   Mostly Cloudy
5:55 AM 75.2 °F - 68.0 °F 78% 29.95 in 10.0 mi NNW 6.9 mph - N/A   Overcast
6:15 AM 75.2 °F - 68.0 °F 78% 29.95 in 10.0 mi NNE 6.9 mph - N/A   Mostly Cloudy
6:35 AM 75.2 °F - 68.0 °F 78% 29.97 in 10.0 mi Calm Calm - N/A   Mostly Cloudy
6:55 AM 73.4 °F - 68.0 °F 83% 29.98 in 10.0 mi SSE 8.1 mph - N/A   Scattered Clouds
7:15 AM 73.4 °F - 69.8 °F 88% 29.99 in 10.0 mi ESE 6.9 mph - N/A   Partly Cloudy
7:35 AM 75.2 °F - 69.8 °F 83% 29.98 in 10.0 mi ENE 8.1 mph - N/A   Partly Cloudy
7:55 AM 77.0 °F - 69.8 °F 78% 29.98 in 10.0 mi East 9.2 mph - N/A   Clear
8:15 AM 78.8 °F - 69.8 °F 74% 29.98 in 10.0 mi East 9.2 mph - N/A   Clear
8:35 AM 80.6 °F 83.2 °F 68.0 °F 65% 29.98 in 10.0 mi East 9.2 mph - N/A   Clear
8:55 AM 80.6 °F 83.9 °F 69.8 °F 70% 29.98 in 10.0 mi East 10.4 mph - N/A   Clear
9:15 AM 82.4 °F 85.4 °F 68.0 °F 62% 29.98 in 10.0 mi East 10.4 mph - N/A   Clear
9:35 AM 82.4 °F 84.6 °F 66.2 °F 58% 29.98 in 10.0 mi East 10.4 mph - N/A   Clear
9:55 AM 84.2 °F 86.6 °F 66.2 °F 55% 29.98 in 10.0 mi East 11.5 mph - N/A   Clear
10:15 AM 86.0 °F 87.3 °F 64.4 °F 48% 29.98 in 10.0 mi ESE 11.5 mph - N/A   Clear
10:35 AM 86.0 °F 87.3 °F 64.4 °F 48% 29.97 in 10.0 mi East 10.4 mph - N/A   Clear
10:55 AM 86.0 °F 87.3 °F 64.4 °F 48% 29.97 in 10.0 mi East 9.2 mph - N/A   Clear
11:15 AM 87.8 °F 89.4 °F 64.4 °F 46% 29.97 in 10.0 mi ESE 10.4 mph - N/A   Clear
11:35 AM 87.8 °F 88.5 °F 62.6 °F 43% 29.97 in 10.0 mi ESE 6.9 mph - N/A   Clear
11:55 AM 89.6 °F 90.1 °F 62.6 °F 40% 29.96 in 10.0 mi ESE 5.8 mph - N/A   Clear
12:15 PM 89.6 °F 90.1 °F 62.6 °F 40% 29.96 in 10.0 mi Calm Calm - N/A   Clear
12:35 PM 91.4 °F 92.1 °F 62.6 °F 38% 29.95 in 10.0 mi ENE 5.8 mph - N/A   Clear
12:55 PM 91.4 °F 91.4 °F 60.8 °F 36% 29.94 in 10.0 mi South 4.6 mph - N/A   Clear
1:15 PM 91.4 °F 91.4 °F 60.8 °F 36% 29.93 in 10.0 mi East 6.9 mph - N/A   Clear
1:35 PM 93.2 °F 92.6 °F 59.0 °F 32% 29.91 in 10.0 mi ESE 5.8 mph - N/A   Clear
1:55 PM 93.2 °F 92.6 °F 59.0 °F 32% 29.90 in 10.0 mi SE 8.1 mph - N/A   Clear
2:15 PM 93.2 °F 92.6 °F 59.0 °F 32% 29.89 in 10.0 mi SSE 4.6 mph - N/A   Clear
2:35 PM 93.2 °F 92.6 °F 59.0 °F 32% 29.87 in 10.0 mi ESE 4.6 mph - N/A   Clear
2:55 PM 93.2 °F 91.9 °F 57.2 °F 30% 29.86 in 10.0 mi Calm Calm - N/A   Clear
3:15 PM 93.2 °F 92.6 °F 59.0 °F 32% 29.85 in 10.0 mi SE 3.5 mph - N/A   Clear
3:35 PM 95.0 °F 93.7 °F 57.2 °F 28% 29.84 in 10.0 mi Calm Calm - N/A   Clear
3:55 PM 95.0 °F 94.4 °F 59.0 °F 30% 29.83 in 10.0 mi SSE 3.5 mph - N/A   Clear
4:15 PM 93.2 °F 91.9 °F 57.2 °F 30% 29.83 in 10.0 mi Calm Calm - N/A   Clear
4:35 PM 95.0 °F 93.7 °F 57.2 °F 28% 29.83 in 10.0 mi Calm Calm - N/A   Clear
4:55 PM 93.2 °F 91.9 °F 57.2 °F 30% 29.83 in 10.0 mi ESE 3.5 mph - N/A   Clear
5:15 PM 93.2 °F 91.9 °F 57.2 °F 30% 29.83 in 10.0 mi Calm Calm - N/A   Clear
5:35 PM 93.2 °F 92.6 °F 59.0 °F 32% 29.82 in 10.0 mi Calm Calm - N/A   Clear
5:55 PM 93.2 °F 92.6 °F 59.0 °F 32% 29.82 in 10.0 mi Calm Calm - N/A   Clear
6:15 PM 93.2 °F 93.3 °F 60.8 °F 34% 29.83 in 10.0 mi SW 8.1 mph - N/A   Clear
6:35 PM 89.6 °F 91.1 °F 64.4 °F 43% 29.83 in 10.0 mi SW 10.4 mph - N/A   Clear
6:55 PM 87.8 °F 88.5 °F 62.6 °F 43% 29.83 in 10.0 mi SW 9.2 mph - N/A   Clear
7:15 PM 87.8 °F 88.5 °F 62.6 °F 43% 29.84 in 10.0 mi WSW 8.1 mph - N/A   Mostly Cloudy
7:35 PM 86.0 °F 86.6 °F 62.6 °F 45% 29.84 in 10.0 mi WSW 8.1 mph - N/A   Partly Cloudy
7:55 PM 86.0 °F 86.6 °F 62.6 °F 45% 29.85 in 10.0 mi WSW 6.9 mph - N/A   Clear
8:15 PM 84.2 °F 85.6 °F 64.4 °F 51% 29.87 in 10.0 mi SW 5.8 mph - N/A   Clear
8:35 PM 84.2 °F 85.6 °F 64.4 °F 51% 29.88 in 10.0 mi SSW 5.8 mph - N/A   Partly Cloudy
8:55 PM 84.2 °F 85.6 °F 64.4 °F 51% 29.90 in 10.0 mi South 12.7 mph 19.6 mph N/A   Mostly Cloudy
9:15 PM 77.0 °F - 66.2 °F 69% 29.93 in 5.0 mi SSW 29.9 mph 44.9 mph N/A   Overcast
9:35 PM 73.4 °F - 66.2 °F 78% 29.95 in 10.0 mi SSW 28.8 mph 41.4 mph 0.01 in   Overcast
9:55 PM 71.6 °F - 69.8 °F 94% 29.97 in 10.0 mi SSW 18.4 mph 31.1 mph 0.03 in   Overcast
10:15 PM 71.6 °F - 69.8 °F 94% 29.98 in 10.0 mi SSW 15.0 mph 24.2 mph N/A   Overcast
10:35 PM 71.6 °F - 68.0 °F 88% 29.99 in 10.0 mi SSW 11.5 mph - 0.01 in   Overcast
10:55 PM 71.6 °F - 69.8 °F 94% 29.99 in 10.0 mi West 9.2 mph - 0.04 in   Overcast
11:15 PM 71.6 °F - 69.8 °F 94% 29.98 in 10.0 mi WSW 9.2 mph - 0.03 in   Mostly Cloudy
11:55 PM 71.6 °F - 71.6 °F 100% 29.96 in 10.0 mi NNW 8.1 mph - 0.04 in   Mostly Cloudy